星链-6275 (STARLINK-6275 )

导读 | 星芒AI

STARLINK-6275 是 SpaceX Starlink 卫星互联网项目中的第 6275 颗卫星。该卫星属于星链计划的中轨道卫星群,旨在为全球用户提供高速、低延迟的互联网服务。它于近期通过猎鹰 9 号火箭发射升空,加入由数千颗卫星组成的星座网络。STARLINK-6275 采用先进通信技术,支持宽带连接,主要服务于地面基站难以覆盖的偏远地区。该卫星的部署进一步增强了 Starlink 的全球网络覆盖能力,推动了全球互联网接入的普及。

基本信息
目录编号:
56772
目录名称:
STARLINK-6275
国际标识:
2023-078F
轨道中心:
EARTH
卫星名称:
星链-6275
卫星全名:
星链-6275 (STARLINK-6275 )
卫星状态:
在轨 (已飞行935 天)
发射日期:
2023-05-31 UTC
国别 :
美国 (US)
星等 :
--
轨道信息
数据来源 国际轨道数据 AOE轨道数据
星历时间 2025-12-21T08:27:53+0800
18小时前
查看轨道信息
2025-12-20T05:00:00+0800
1天前
查看轨道信息
半长轴 6950.186km 6950.187km
偏心率 0.0002796 0.0003075
轨道倾角 69.999° 70.000°
近地点辐角 273.074° 274.343°
升交点赤经 202.784° 205.667°
平近点角 87.010° 34.797°
近地点 570.105km 569.912km
远地点 573.993km 574.188km
周期 96.107分钟 96.107分钟
每日圈数 14.983323 14.983322
详细信息
固有亮度:
5
最大亮度:
2.5
卫星平台:
Starlink v1.5
覆盖范围:
全球
运营商:
太空探索技术公司
运营商所在国:
美国
制造商(研发单位):
太空探索技术公司
制造商所在国:
美国
使用方式:
暂无
卫星简介
星链(Starlink)计划是由太空探索技术公司(SpaceX)提出的一个巨型低轨卫星互联网星座项目,计划在2019年至2024年间在太空搭建由约1.2万颗卫星组成的“星链”网络,其中1584颗将部署在地球上空550千米处的近地轨道,并从2020年开始工作。该卫星仍在工作。
2D轨道图
3D轨道图
轨道高度分析图
轨道倾角分析图
轨道综合分析图
查看轨道综合分析图